Overview Statistics Trail Chart Weather Telemetry Raw packets
 

This is the latest recevied weather packets stored in our database for station/object KF7SOJ. If no packets are shown the sender has not sent any weather packets the latest 10 day(s).

<< 41 42 43 44 45 46 47 >>
Time Temp. Humidity Pressure Rain* Wind** Luminosity Snow
1788334701 16.11° C 55% 926.9 hPa 0 mm - 0 W/m² -
1788334398 16.67° C 52% 927 hPa 0 mm - 0 W/m² -
1788334094 17.22° C 51% 927 hPa 0 mm - 0 W/m² -
1788333789 16.11° C 54% 927.1 hPa 0 mm - 0 W/m² -
1788333486 16.67° C 52% 927.1 hPa 0 mm - 0 W/m² -
1788333180 15.56° C 57% 927 hPa 0 mm - 0 W/m² -
1788332877 16.11° C 55% 927.1 hPa 0 mm - 0 W/m² -
1788332576 17.22° C 50% 927 hPa 0 mm - 0 W/m² -
1788332275 17.78° C 47% 926.9 hPa 0 mm - 0 W/m² -
1788331970 18.33° C 46% 926.8 hPa 0 mm - 0 W/m² -
1788331666 18.89° C 43% 926.9 hPa 0 mm - 0 W/m² -
1788331362 20° C 40% 926.9 hPa 0 mm - 0 W/m² -
1788331057 19.44° C 41% 926.7 hPa 0 mm - 0 W/m² -
1788330752 19.44° C 42% 926.9 hPa 0 mm - 0 W/m² -
1788330451 19.44° C 42% 927 hPa 0 mm - 0 W/m² -
1788330146 19.44° C 42% 927.1 hPa 0 mm - 0 W/m² -
1788329845 19.44° C 44% 927.1 hPa 0 mm - 0 W/m² -
1788329541 19.44° C 44% 927.2 hPa 0 mm - 0 W/m² -
1788329238 19.44° C 44% 927.3 hPa 0 mm - 0 W/m² -
1788328933 19.44° C 43% 927.2 hPa 0 mm - 0 W/m² -
1788328629 18.89° C 45% 927.2 hPa 0 mm - 0 W/m² -
1788328325 18.89° C 44% 927.2 hPa 0 mm - 0 W/m² -
1788328019 18.89° C 44% 927.2 hPa 0 mm - 0 W/m² -
1788327715 18.89° C 45% 927.3 hPa 0 mm - 0 W/m² -
1788327405 19.44° C 42% 927.1 hPa 0 mm - 0 W/m² -

* Rain latest hour (hover to see other rain measurements)
** Current wind speed in m/s (hover to see current wind gust speed)